FW7645 Weather Reports


time (UTC)temp
F
wind
direction
speed
knots
gust
knots
rain 1hr
in
rain 24hr
in
rain mn
in
humidity
%
barometer
mb
20260509064539 48 0 0.0 0.0 0.01 0.04 0.01 90 1011.5
20260509063052 48 0 0.0 0.0 0.01 0.04 0.01 90 1011.7
20260509061541 48 0 0.0 0.9 0.01 0.04 0.01 90 1012.0
20260509060101 48 0 0.0 0.0 0.01 0.04 0.01 89 1012.2
20260509054539 48 0 0.0 0.0 0.00 0.03 0.00 89 1012.1
20260509053051 49 0 0.0 0.0 0.00 0.03 0.00 88 1012.4
20260509051547 49 0 0.0 0.0 0.00 0.03 0.00 88 1012.9
20260509050035 49 0 0.0 0.0 0.00 0.03 0.00 87 1013.0
20260509044540 49 0 0.0 0.0 0.00 0.03 0.00 87 1013.1
20260509043045 50 0 0.0 0.0 0.00 0.03 0.00 87 1012.9
20260509041535 50 0 0.0 0.0 0.00 0.03 0.00 86 1012.9
20260509040055 50 0 0.0 0.0 0.00 0.03 0.00 85 1013.0
20260509034534 50 0 0.0 0.0 0.00 0.03 0.03 84 1013.1
20260509033107 50 0 0.0 0.0 0.00 0.03 0.03 83 1013.0
20260509031543 51 0 0.0 0.0 0.00 0.03 0.03 82 1012.8
20260509030039 51 0 0.0 0.0 0.00 0.03 0.03 80 1012.8
20260509024540 50 0 0.0 0.0 0.00 0.03 0.03 81 1013.1
20260509023037 50 0 0.0 0.0 0.00 0.03 0.03 79 1013.1
20260509021537 51 0 0.0 0.0 0.00 0.03 0.03 78 1013.1
20260509020037 52 0 0.0 0.9 0.00 0.03 0.03 78 1012.8
20260509014538 53 136 0.0 1.7 0.00 0.03 0.03 74 1012.4
20260509013036 54 122 0.0 3.5 0.00 0.03 0.03 70 1013.0
20260509011544 54 0 0.0 2.6 0.00 0.03 0.03 66 1012.7
20260509010039 54 243 0.0 2.6 0.00 0.03 0.03 65 1012.0
20260509004534 55 103 0.0 1.7 0.00 0.03 0.03 65 1012.0
20260509003040 55 141 0.0 1.7 0.00 0.03 0.03 65 1012.0
20260509001537 55 0 0.0 1.7 0.00 0.03 0.03 64 1012.0
20260509000037 56 0 0.0 2.6 0.00 0.03 0.03 63 1012.0
20260508234537 56 115 0.0 4.3 0.00 0.03 0.03 63 1011.8
20260508233038 56 107 0.0 7.0 0.00 0.03 0.03 63 1011.8
20260508231538 57 103 0.0 4.3 0.00 0.03 0.03 63 1011.6
20260508230035 57 341 0.0 2.6 0.00 0.03 0.03 63 1011.6
20260508224545 58 124 0.9 6.1 0.00 0.03 0.03 62 1011.4
20260508223037 59 139 0.0 4.3 0.00 0.03 0.03 63 1011.5
20260508221534 58 0 0.0 1.7 0.00 0.03 0.03 68 1011.6
20260508220046 55 0 0.0 0.9 0.00 0.03 0.03 75 1011.8
20260508214543 54 0 0.0 2.6 0.00 0.03 0.03 74 1012.0
20260508213039 53 0 0.0 1.7 0.02 0.03 0.03 75 1011.7
20260508211540 52 0 0.0 0.9 0.02 0.03 0.03 79 1011.7
20260508210040 52 130 0.0 2.6 0.02 0.03 0.03 79 1011.8
20260508204539 53 41 0.9 8.7 0.02 0.03 0.03 75 1012.1
20260508203037 57 353 3.5 11.3 0.00 0.01 0.01 57 1012.2
20260508201540 58 133 0.0 1.7 0.00 0.01 0.01 57 1011.4
20260508200039 58 113 0.0 1.7 0.00 0.01 0.01 60 1011.6
20260508194535 57 0 0.0 0.9 0.00 0.01 0.01 61 1011.7
20260508193039 57 0 0.0 0.9 0.01 0.01 0.01 58 1011.8
20260508191547 57 0 0.0 1.7 0.01 0.01 0.01 57 1011.8
20260508190100 57 41 0.0 4.3 0.01 0.01 0.01 58 1011.7
20260508184541 57 316 0.0 4.3 0.01 0.01 0.01 68 1011.9
20260508183042 59 150 0.0 2.6 0.00 0.00 0.00 54 1011.9
20260508181544 60 39 1.7 6.1 0.00 0.00 0.00 48 1011.9
20260508180038 59 252 0.9 3.5 0.00 0.00 0.00 51 1012.2
20260508174543 58 0 2.6 8.7 0.00 0.00 0.00 53 1012.2
20260508173035 57 264 0.9 7.0 0.00 0.00 0.00 63 1012.5
20260508171542 57 354 1.7 9.6 0.00 0.00 0.00 55 1012.8
20260508170037 58 255 1.7 7.8 0.00 0.00 0.00 48 1012.6
20260508164537 58 288 0.9 4.3 0.00 0.00 0.00 48 1012.6
20260508163050 58 312 2.6 7.8 0.00 0.00 0.00 47 1012.7
20260508161552 58 281 2.6 9.6 0.00 0.00 0.00 46 1012.7
20260508160039 58 287 2.6 12.2 0.00 0.00 0.00 48 1012.9
20260508154538 59 292 2.6 5.2 0.00 0.00 0.00 46 1012.8
20260508153052 58 7 2.6 9.6 0.00 0.00 0.00 48 1012.9
20260508151534 58 212 0.9 10.4 0.00 0.00 0.00 49 1012.8
20260508150037 57 236 3.5 8.7 0.00 0.00 0.00 47 1012.5
20260508144540 57 315 2.6 7.8 0.00 0.00 0.00 49 1012.4
20260508143057 56 120 1.7 7.0 0.00 0.00 0.00 50 1012.8
20260508141540 55 347 1.7 7.8 0.00 0.00 0.00 51 1013.0
20260508140039 54 318 2.6 4.3 0.00 0.00 0.00 52 1013.1
20260508134538 53 300 1.7 6.1 0.00 0.00 0.00 54 1013.3
20260508133035 52 295 0.9 4.3 0.00 0.00 0.00 55 1013.4
20260508131537 51 0 0.9 4.3 0.00 0.00 0.00 57 1013.6
20260508130042 49 301 0.9 5.2 0.00 0.00 0.00 62 1013.6
20260508124537 46 0 0.0 0.9 0.00 0.00 0.00 74 1013.5
20260508123048 43 0 0.0 0.0 0.00 0.00 0.00 79 1013.8
20260508121537 42 0 0.0 0.0 0.00 0.00 0.00 78 1013.8
20260508120037 42 0 0.0 0.0 0.00 0.00 0.00 77 1013.8
20260508114540 41 0 0.0 0.0 0.00 0.00 0.00 78 1013.9
20260508113040 40 0 0.0 0.0 0.00 0.00 0.00 82 1014.1
20260508111540 38 0 0.0 0.0 0.00 0.00 0.00 86 1014.0
20260508110038 37 0 0.0 0.0 0.00 0.00 0.00 86 1013.9
20260508104536 37 0 0.0 0.0 0.00 0.00 0.00 86 1013.9
20260508103043 37 0 0.0 0.0 0.00 0.00 0.00 88 1013.6
20260508101541 36 0 0.0 0.0 0.00 0.00 0.00 89 1013.6
20260508100056 35 0 0.0 0.0 0.00 0.00 0.00 88 1013.4
20260508094541 35 0 0.0 0.0 0.00 0.00 0.00 89 1013.4
20260508093039 35 0 0.0 0.0 0.00 0.00 0.00 88 1013.3
20260508091552 35 0 0.0 0.0 0.00 0.00 0.00 88 1013.3
20260508090049 35 0 0.0 0.0 0.00 0.00 0.00 87 1013.2
20260508084539 36 0 0.0 0.0 0.00 0.00 0.00 86 1013.3
20260508083040 37 0 0.0 0.0 0.00 0.00 0.00 85 1013.2
20260508081553 38 0 0.0 0.0 0.00 0.00 0.00 84 1013.2
20260508080035 38 0 0.0 0.0 0.00 0.00 0.00 84 1013.2
20260508074537 38 0 0.0 0.0 0.00 0.00 0.00 86 1013.1
20260508073044 38 0 0.0 0.0 0.00 0.00 0.00 87 1013.1
20260508071541 38 0 0.0 0.0 0.00 0.00 0.00 89 1013.3
20260508070040 38 0 0.0 0.0 0.00 0.00 0.00 89 1013.4